Time,TemperatureF,DewpointF,PressureIn,WindDirection,WindDirectionDegrees,WindSpeedMPH,WindSpeedGustMPH,Humidity,HourlyPrecipIn,Conditions,Clouds,dailyrainin,SoftwareType,DateUTC
2013-02-13 00:08:00,35.1,23.0,29.95,SW,225,1.0,2.0,62,0.00,,,0.00,weatherlink.com 1.10,2013-02-13 05:08:00,
2013-02-13 00:23:00,35.0,23.0,29.95,NNW,340,1.0,5.0,62,0.00,,,0.00,weatherlink.com 1.10,2013-02-13 05:23:00,
2013-02-13 00:38:00,34.1,23.0,29.95,South,169,0.0,1.0,64,0.00,,,0.00,weatherlink.com 1.10,2013-02-13 05:38:00,
2013-02-13 00:53:00,33.3,23.0,29.95,South,177,0.0,0.0,65,0.00,,,0.00,weatherlink.com 1.10,2013-02-13 05:53:00,
2013-02-13 01:08:00,33.3,23.0,29.95,West,274,2.0,2.0,66,0.00,,,0.00,weatherlink.com 1.10,2013-02-13 06:08:00,
2013-02-13 01:38:00,32.1,23.0,29.96,WSW,257,0.0,1.0,69,0.00,,,0.00,weatherlink.com 1.10,2013-02-13 06:38:00,
2013-02-13 01:53:00,32.3,24.0,29.97,SW,232,1.0,1.0,70,0.00,,,0.00,weatherlink.com 1.10,2013-02-13 06:53:00,
2013-02-13 02:08:00,32.1,24.0,29.98,SSW,208,0.0,1.0,72,0.00,,,0.00,weatherlink.com 1.10,2013-02-13 07:08:00,
2013-02-13 02:23:00,31.7,25.0,29.97,SSW,209,0.0,1.0,75,0.00,,,0.00,weatherlink.com 1.10,2013-02-13 07:23:00,
2013-02-13 02:38:00,31.6,24.0,29.97,WSW,242,0.0,1.0,74,0.00,,,0.00,weatherlink.com 1.10,2013-02-13 07:38:00,
2013-02-13 02:53:00,30.9,24.0,29.97,South,184,0.0,1.0,76,0.00,,,0.00,weatherlink.com 1.10,2013-02-13 07:53:00,
2013-02-13 03:08:00,30.8,24.0,29.96,West,271,0.0,1.0,76,0.00,,,0.00,weatherlink.com 1.10,2013-02-13 08:08:00,
2013-02-13 03:24:00,31.0,24.0,29.96,WSW,242,0.0,1.0,75,0.00,,,0.00,weatherlink.com 1.10,2013-02-13 08:24:00,
2013-02-13 03:38:00,30.8,24.0,29.96,WSW,256,0.0,1.0,75,0.00,,,0.00,weatherlink.com 1.10,2013-02-13 08:38:00,
2013-02-13 03:53:00,30.7,24.0,29.96,WSW,253,0.0,1.0,75,0.00,,,0.00,weatherlink.com 1.10,2013-02-13 08:53:00,
2013-02-13 04:08:00,30.2,24.0,29.95,West,264,0.0,1.0,76,0.00,,,0.00,weatherlink.com 1.10,2013-02-13 09:08:00,
2013-02-13 04:24:00,29.3,23.0,29.94,WNW,288,0.0,1.0,77,0.00,,,0.00,weatherlink.com 1.10,2013-02-13 09:24:00,
2013-02-13 04:38:00,28.5,22.0,29.94,WNW,288,0.0,0.0,78,0.00,,,0.00,weatherlink.com 1.10,2013-02-13 09:38:00,
2013-02-13 04:53:00,27.5,22.0,29.93,WNW,288,0.0,1.0,81,0.00,,,0.00,weatherlink.com 1.10,2013-02-13 09:53:00,
2013-02-13 05:08:00,27.1,23.0,29.93,WNW,288,0.0,0.0,83,0.00,,,0.00,weatherlink.com 1.10,2013-02-13 10:08:00,
2013-02-13 05:23:00,27.0,23.0,29.93,WNW,288,0.0,1.0,83,0.00,,,0.00,weatherlink.com 1.10,2013-02-13 10:23:00,
2013-02-13 05:39:00,26.6,23.0,29.93,WNW,288,0.0,0.0,85,0.00,,,0.00,weatherlink.com 1.10,2013-02-13 10:39:00,
2013-02-13 05:54:00,26.7,22.0,29.93,WNW,288,0.0,0.0,82,0.00,,,0.00,weatherlink.com 1.10,2013-02-13 10:54:00,
2013-02-13 06:09:00,26.0,22.0,29.93,WNW,288,0.0,0.0,84,0.00,,,0.00,weatherlink.com 1.10,2013-02-13 11:09:00,
2013-02-13 06:24:00,26.3,22.0,29.93,SSW,210,0.0,1.0,84,0.00,,,0.00,weatherlink.com 1.10,2013-02-13 11:24:00,
2013-02-13 06:39:00,26.1,22.0,29.93,SSW,210,0.0,1.0,84,0.00,,,0.00,weatherlink.com 1.10,2013-02-13 11:39:00,
2013-02-13 06:54:00,25.6,22.0,29.94,SSW,210,0.0,1.0,87,0.00,,,0.00,weatherlink.com 1.10,2013-02-13 11:54:00,
2013-02-13 07:09:00,25.6,22.0,29.94,SSW,209,0.0,0.0,86,0.00,,,0.00,weatherlink.com 1.10,2013-02-13 12:09:00,
2013-02-13 07:24:00,25.5,21.0,29.94,SSW,210,0.0,0.0,84,0.00,,,0.00,weatherlink.com 1.10,2013-02-13 12:24:00,
2013-02-13 07:39:00,25.8,22.0,29.94,SSW,210,0.0,0.0,85,0.00,,,0.00,weatherlink.com 1.10,2013-02-13 12:39:00,
2013-02-13 07:54:00,28.0,23.0,29.94,SSW,210,0.0,0.0,81,0.00,,,0.00,weatherlink.com 1.10,2013-02-13 12:54:00,
2013-02-13 08:09:00,29.9,24.0,29.94,SSW,210,0.0,0.0,77,0.00,,,0.00,weatherlink.com 1.10,2013-02-13 13:09:00,
2013-02-13 08:24:00,32.2,23.0,29.93,WSW,258,1.0,1.0,70,0.00,,,0.00,weatherlink.com 1.10,2013-02-13 13:24:00,
2013-02-13 08:39:00,33.6,23.0,29.93,West,281,1.0,2.0,65,0.00,,,0.00,weatherlink.com 1.10,2013-02-13 13:39:00,
2013-02-13 08:54:00,34.3,23.0,29.92,NNE,26,0.0,3.0,64,0.00,,,0.00,weatherlink.com 1.10,2013-02-13 13:54:00,
2013-02-13 09:09:00,35.0,23.0,29.92,NNW,340,0.0,2.0,62,0.00,,,0.00,weatherlink.com 1.10,2013-02-13 14:09:00,
2013-02-13 09:24:00,35.7,23.0,29.91,NNE,26,0.0,4.0,60,0.00,,,0.00,weatherlink.com 1.10,2013-02-13 14:24:00,
2013-02-13 09:39:00,36.3,23.0,29.90,North,11,2.0,5.0,59,0.00,,,0.00,weatherlink.com 1.10,2013-02-13 14:39:00,
2013-02-13 09:54:00,37.1,23.0,29.90,North,11,0.0,5.0,58,0.00,,,0.00,weatherlink.com 1.10,2013-02-13 14:54:00,
2013-02-13 10:09:00,38.4,23.0,29.90,WNW,300,1.0,3.0,55,0.00,,,0.00,weatherlink.com 1.10,2013-02-13 15:09:00,
2013-02-13 10:24:00,39.4,23.0,29.90,West,271,1.0,5.0,53,0.00,,,0.00,weatherlink.com 1.10,2013-02-13 15:24:00,
2013-02-13 10:39:00,39.7,23.0,29.89,NW,324,0.0,4.0,52,0.00,,,0.00,weatherlink.com 1.10,2013-02-13 15:39:00,
2013-02-13 10:54:00,40.3,24.0,29.90,NE,41,3.0,4.0,53,0.00,,,0.00,weatherlink.com 1.10,2013-02-13 15:54:00,
2013-02-13 11:09:00,40.4,23.0,29.91,ESE,107,2.0,4.0,51,0.00,,,0.00,weatherlink.com 1.10,2013-02-13 16:09:00,
2013-02-13 11:24:00,40.7,24.0,29.91,South,181,1.0,5.0,51,0.00,,,0.00,weatherlink.com 1.10,2013-02-13 16:24:00,
2013-02-13 11:40:00,40.1,24.0,29.91,SSW,210,2.0,5.0,52,0.00,,,0.00,weatherlink.com 1.10,2013-02-13 16:40:00,
2013-02-13 11:54:00,39.6,24.0,29.90,WNW,284,2.0,4.0,53,0.00,,,0.00,weatherlink.com 1.10,2013-02-13 16:54:00,
2013-02-13 12:10:00,40.7,25.0,29.88,SE,129,1.0,3.0,54,0.00,,,0.00,weatherlink.com 1.10,2013-02-13 17:10:00,
2013-02-13 12:24:00,41.4,24.0,29.87,SSE,165,4.0,5.0,51,0.00,,,0.00,weatherlink.com 1.10,2013-02-13 17:24:00,
2013-02-13 12:40:00,41.1,24.0,29.86,WNW,294,1.0,4.0,51,0.00,,,0.00,weatherlink.com 1.10,2013-02-13 17:40:00,
2013-02-13 12:54:00,41.1,24.0,29.85,WNW,287,4.0,6.0,50,0.00,,,0.00,weatherlink.com 1.10,2013-02-13 17:54:00,
2013-02-13 13:09:00,41.5,24.0,29.84,NW,311,0.0,5.0,50,0.00,,,0.00,weatherlink.com 1.10,2013-02-13 18:09:00,
2013-02-13 13:24:00,42.4,24.0,29.82,ESE,107,2.0,4.0,49,0.00,,,0.00,weatherlink.com 1.10,2013-02-13 18:24:00,
2013-02-13 13:40:00,42.6,25.0,29.81,NNE,27,1.0,5.0,50,0.00,,,0.00,weatherlink.com 1.10,2013-02-13 18:40:00,
2013-02-13 13:55:00,43.5,25.0,29.80,ESE,122,1.0,4.0,49,0.00,,,0.00,weatherlink.com 1.10,2013-02-13 18:55:00,
2013-02-13 14:10:00,43.7,25.0,29.80,SE,136,0.0,4.0,49,0.00,,,0.00,weatherlink.com 1.10,2013-02-13 19:10:00,
2013-02-13 14:25:00,44.1,25.0,29.80,South,170,3.0,4.0,47,0.00,,,0.00,weatherlink.com 1.10,2013-02-13 19:25:00,
2013-02-13 14:40:00,43.8,25.0,29.79,NW,304,1.0,4.0,48,0.00,,,0.00,weatherlink.com 1.10,2013-02-13 19:40:00,
2013-02-13 14:55:00,42.9,25.0,29.79,ESE,115,2.0,4.0,49,0.00,,,0.00,weatherlink.com 1.10,2013-02-13 19:55:00,
2013-02-13 15:10:00,41.7,25.0,29.78,East,82,3.0,4.0,51,0.00,,,0.00,weatherlink.com 1.10,2013-02-13 20:10:00,
2013-02-13 15:25:00,41.2,24.0,29.78,SSE,165,3.0,4.0,51,0.00,,,0.00,weatherlink.com 1.10,2013-02-13 20:25:00,
2013-02-13 15:40:00,40.7,25.0,29.78,ESE,102,1.0,4.0,53,0.00,,,0.00,weatherlink.com 1.10,2013-02-13 20:40:00,
2013-02-13 15:55:00,40.5,25.0,29.78,NE,54,2.0,4.0,54,0.00,,,0.00,weatherlink.com 1.10,2013-02-13 20:55:00,
2013-02-13 16:10:00,40.4,24.0,29.77,East,98,1.0,2.0,53,0.00,,,0.00,weatherlink.com 1.10,2013-02-13 21:10:00,
2013-02-13 16:25:00,40.1,24.0,29.77,ENE,74,2.0,2.0,54,0.00,,,0.00,weatherlink.com 1.10,2013-02-13 21:25:00,
2013-02-13 16:40:00,39.6,24.0,29.77,ENE,74,0.0,3.0,55,0.00,,,0.00,weatherlink.com 1.10,2013-02-13 21:40:00,
2013-02-13 16:55:00,39.5,24.0,29.76,ENE,72,0.0,1.0,55,0.00,,,0.00,weatherlink.com 1.10,2013-02-13 21:55:00,
2013-02-13 17:10:00,39.3,25.0,29.75,ENE,72,0.0,1.0,56,0.00,,,0.00,weatherlink.com 1.10,2013-02-13 22:10:00,
2013-02-13 17:25:00,39.1,25.0,29.74,ENE,72,0.0,1.0,57,0.00,,,0.00,weatherlink.com 1.10,2013-02-13 22:25:00,
2013-02-13 17:40:00,38.7,24.0,29.74,ENE,72,0.0,1.0,57,0.00,,,0.00,weatherlink.com 1.10,2013-02-13 22:40:00,
2013-02-13 17:55:00,38.4,25.0,29.74,ENE,72,0.0,1.0,59,0.00,,,0.00,weatherlink.com 1.10,2013-02-13 22:55:00,
2013-02-13 18:10:00,38.2,25.0,29.73,NNE,20,1.0,2.0,60,0.00,,,0.00,weatherlink.com 1.10,2013-02-13 23:10:00,
2013-02-13 18:25:00,38.2,25.0,29.73,NNE,21,0.0,1.0,60,0.00,,,0.00,weatherlink.com 1.10,2013-02-13 23:25:00,
2013-02-13 18:40:00,38.2,26.0,29.73,NNE,20,0.0,1.0,62,0.00,,,0.00,weatherlink.com 1.10,2013-02-13 23:40:00,
2013-02-13 18:55:00,37.9,25.0,29.74,NNE,20,0.0,1.0,61,0.00,,,0.00,weatherlink.com 1.10,2013-02-13 23:55:00,
2013-02-13 19:10:00,37.8,25.0,29.74,NNE,20,0.0,0.0,61,0.00,,,0.00,weatherlink.com 1.10,2013-02-14 00:10:00,
2013-02-13 19:26:00,37.4,26.0,29.75,NNE,21,0.0,0.0,64,0.00,,,0.00,weatherlink.com 1.10,2013-02-14 00:26:00,
2013-02-13 19:40:00,37.0,26.0,29.74,NNE,20,0.0,0.0,65,0.00,,,0.00,weatherlink.com 1.10,2013-02-14 00:40:00,
2013-02-13 19:55:00,36.7,25.0,29.73,NNE,20,0.0,1.0,64,0.00,,,0.00,weatherlink.com 1.10,2013-02-14 00:55:00,
2013-02-13 20:10:00,37.1,26.0,29.73,NNE,20,0.0,1.0,65,0.00,,,0.00,weatherlink.com 1.10,2013-02-14 01:10:00,
2013-02-13 20:26:00,36.7,27.0,29.74,NNE,21,0.0,1.0,69,0.00,,,0.00,weatherlink.com 1.10,2013-02-14 01:26:00,
2013-02-13 20:40:00,36.6,26.0,29.75,NNE,19,0.0,0.0,66,0.00,,,0.00,weatherlink.com 1.10,2013-02-14 01:40:00,
2013-02-13 20:56:00,36.5,29.0,29.76,NNW,328,1.0,4.0,73,0.00,,,0.00,weatherlink.com 1.10,2013-02-14 01:56:00,
2013-02-13 21:10:00,35.5,31.0,29.76,NE,36,2.0,5.0,84,0.00,,,0.00,weatherlink.com 1.10,2013-02-14 02:10:00,
2013-02-13 21:26:00,34.1,31.0,29.76,NW,313,1.0,3.0,89,0.00,,,0.00,weatherlink.com 1.10,2013-02-14 02:26:00,
2013-02-13 21:40:00,33.1,31.0,29.75,North,356,0.0,1.0,92,0.00,,,0.00,weatherlink.com 1.10,2013-02-14 02:40:00,
2013-02-13 21:55:00,32.7,31.0,29.75,North,6,0.0,1.0,93,0.00,,,0.00,weatherlink.com 1.10,2013-02-14 02:55:00,
2013-02-13 22:11:00,32.5,31.0,29.74,North,349,1.0,2.0,94,0.00,,,0.00,weatherlink.com 1.10,2013-02-14 03:11:00,
2013-02-13 22:25:00,32.5,31.0,29.74,NNW,330,0.0,2.0,95,0.00,,,0.00,weatherlink.com 1.10,2013-02-14 03:25:00,
2013-02-13 22:41:00,32.5,31.0,29.75,North,8,0.0,1.0,95,0.00,,,0.00,weatherlink.com 1.10,2013-02-14 03:41:00,
2013-02-13 22:55:00,32.5,31.0,29.75,NNE,18,1.0,2.0,95,0.00,,,0.00,weatherlink.com 1.10,2013-02-14 03:55:00,
2013-02-13 23:11:00,32.4,31.0,29.74,NNE,23,1.0,2.0,95,0.00,,,0.00,weatherlink.com 1.10,2013-02-14 04:11:00,
2013-02-13 23:41:00,32.2,31.0,29.74,ENE,63,0.0,1.0,96,0.00,,,0.00,weatherlink.com 1.10,2013-02-14 04:41:00,
2013-02-13 23:56:00,32.1,31.0,29.74,NNE,29,1.0,1.0,96,0.00,,,0.00,weatherlink.com 1.10,2013-02-14 04:56:00,